| time (UTC) | temp F | wind direction | speed MPH | gust MPH | rain 1hr in | rain 24hr in | rain mn in | humidity % | barometer mb |
| 20260905024354 | 56 | 212 | 2.0 | 5.0 | 0.00 | 0.11 | 0.00 | 87 | 1018.0 |
| 20260905023840 | 56 | 210 | 2.0 | 6.0 | 0.00 | 0.11 | 0.00 | 87 | 1017.9 |
| 20260905023341 | 56 | 214 | 3.0 | 6.0 | 0.00 | 0.11 | 0.00 | 87 | 1017.9 |
| 20260905022841 | 56 | 228 | 3.0 | 5.0 | 0.00 | 0.11 | 0.00 | 87 | 1017.8 |
| 20260905022340 | 56 | 230 | 4.0 | 5.0 | 0.00 | 0.11 | 0.00 | 87 | 1017.8 |
| 20260905021856 | 56 | 237 | 3.0 | 5.0 | 0.00 | 0.11 | 0.00 | 87 | 1017.8 |
| 20260905021342 | 56 | 231 | 2.0 | 5.0 | 0.00 | 0.11 | 0.00 | 87 | 1017.7 |
| 20260905021230 | 56 | 227 | 2.0 | 6.0 | 0.00 | 0.11 | 0.00 | 87 | 1017.7 |
| 20260905020339 | 56 | 223 | 3.0 | 6.0 | 0.00 | 0.11 | 0.00 | 87 | 1017.7 |
| 20260905015841 | 56 | 226 | 5.0 | 6.0 | 0.00 | 0.11 | 0.00 | 87 | 1017.6 |
| 20260905015340 | 56 | 221 | 4.0 | 6.0 | 0.00 | 0.11 | 0.00 | 87 | 1017.6 |
| 20260905014841 | 56 | 221 | 4.0 | 5.0 | 0.00 | 0.11 | 0.00 | 87 | 1017.6 |
| 20260905014340 | 56 | 214 | 2.0 | 5.0 | 0.00 | 0.11 | 0.00 | 87 | 1017.6 |
| 20260905013841 | 56 | 216 | 3.0 | 4.0 | 0.00 | 0.11 | 0.00 | 87 | 1017.6 |
| 20260905013338 | 56 | 213 | 3.0 | 5.0 | 0.00 | 0.11 | 0.00 | 87 | 1017.5 |
| 20260905012839 | 57 | 223 | 4.0 | 6.0 | 0.00 | 0.11 | 0.00 | 87 | 1017.5 |
| 20260905012337 | 56 | 230 | 4.0 | 6.0 | 0.00 | 0.11 | 0.00 | 87 | 1017.6 |
| 20260905011839 | 56 | 234 | 4.0 | 5.0 | 0.00 | 0.11 | 0.00 | 87 | 1017.5 |
| 20260905011337 | 56 | 248 | 4.0 | 5.0 | 0.00 | 0.11 | 0.00 | 87 | 1017.5 |
| 20260905010838 | 57 | 224 | 3.0 | 6.0 | 0.00 | 0.11 | 0.00 | 87 | 1017.4 |
| 20260905010341 | 57 | 227 | 4.0 | 6.0 | 0.00 | 0.11 | 0.00 | 87 | 1017.4 |
| 20260905005840 | 57 | 224 | 3.0 | 5.0 | 0.00 | 0.11 | 0.00 | 87 | 1017.3 |
| 20260905005340 | 57 | 226 | 3.0 | 4.0 | 0.00 | 0.11 | 0.00 | 87 | 1017.3 |
| 20260905004837 | 57 | 226 | 2.0 | 5.0 | 0.00 | 0.11 | 0.00 | 87 | 1017.3 |
| 20260905004340 | 57 | 226 | 3.0 | 5.0 | 0.00 | 0.11 | 0.00 | 87 | 1017.3 |
| 20260905003838 | 57 | 226 | 3.0 | 4.0 | 0.00 | 0.11 | 0.00 | 86 | 1017.4 |
| 20260905003337 | 57 | 224 | 3.0 | 5.0 | 0.00 | 0.11 | 0.00 | 86 | 1017.3 |
| 20260905002835 | 57 | 226 | 4.0 | 5.0 | 0.00 | 0.11 | 0.00 | 86 | 1017.3 |
| 20260905002718 | 57 | 227 | 2.0 | 4.0 | 0.00 | 0.11 | 0.00 | 86 | 1017.5 |
| 20260905002123 | 57 | 231 | 2.0 | 4.0 | 0.00 | 0.11 | 0.00 | 85 | 1017.3 |
| 20260905002007 | 57 | 231 | 3.0 | 4.0 | 0.00 | 0.11 | 0.00 | 85 | 1017.4 |
| 20260905000836 | 58 | 230 | 3.0 | 4.0 | 0.00 | 0.11 | 0.00 | 84 | 1017.3 |
| 20260905000337 | 58 | 233 | 2.0 | 4.0 | 0.00 | 0.11 | 0.00 | 84 | 1017.3 |
| 20260905000219 | 58 | 234 | 3.0 | 4.0 | 0.00 | 0.11 | 0.00 | 84 | 1017.2 |
| 20260904235336 | 58 | 241 | 4.0 | 4.0 | 0.00 | 0.11 | 0.00 | 84 | 1017.2 |
| 20260904235215 | 58 | 243 | 0.0 | 3.0 | 0.00 | 0.11 | 0.00 | 83 | 1017.2 |
| 20260904234336 | 58 | 244 | 0.0 | 4.0 | 0.00 | 0.11 | 0.00 | 83 | 1017.3 |
| 20260904233836 | 59 | 244 | 1.0 | 5.0 | 0.00 | 0.11 | 0.00 | 83 | 1017.2 |
| 20260904233334 | 59 | 233 | 4.0 | 5.0 | 0.00 | 0.11 | 0.00 | 83 | 1017.2 |
| 20260904232834 | 59 | 234 | 4.0 | 5.0 | 0.00 | 0.11 | 0.00 | 81 | 1017.2 |
| 20260904232334 | 59 | 248 | 3.0 | 4.0 | 0.00 | 0.11 | 0.00 | 80 | 1017.1 |
| 20260904231835 | 59 | 248 | 2.0 | 4.0 | 0.00 | 0.11 | 0.00 | 80 | 1017.1 |
| 20260904231337 | 60 | 248 | 3.0 | 4.0 | 0.00 | 0.11 | 0.00 | 80 | 1017.1 |
| 20260904230834 | 60 | 252 | 3.0 | 4.0 | 0.00 | 0.11 | 0.00 | 79 | 1017.0 |
| 20260904230334 | 60 | 254 | 3.0 | 5.0 | 0.00 | 0.11 | 0.00 | 79 | 1017.0 |
| 20260904225834 | 60 | 255 | 3.0 | 5.0 | 0.00 | 0.11 | 0.00 | 79 | 1017.0 |
| 20260904225334 | 60 | 262 | 3.0 | 6.0 | 0.00 | 0.11 | 0.00 | 78 | 1016.9 |
| 20260904224836 | 60 | 269 | 2.0 | 7.0 | 0.00 | 0.11 | 0.00 | 79 | 1016.9 |
| 20260904224335 | 60 | 268 | 3.0 | 7.0 | 0.00 | 0.11 | 0.00 | 79 | 1016.9 |
| 20260904223834 | 61 | 279 | 4.0 | 7.0 | 0.00 | 0.11 | 0.00 | 79 | 1017.0 |
| 20260904223333 | 61 | 278 | 3.0 | 6.0 | 0.00 | 0.11 | 0.00 | 79 | 1016.9 |
| 20260904223110 | 61 | 271 | 5.0 | 9.0 | 0.00 | 0.11 | 0.00 | 79 | 1016.8 |
| 20260904223001 | 61 | 268 | 4.0 | 9.0 | 0.00 | 0.11 | 0.00 | 79 | 1016.9 |
| 20260904221834 | 61 | 279 | 4.0 | 5.0 | 0.00 | 0.11 | 0.00 | 79 | 1016.7 |
| 20260904221334 | 62 | 268 | 3.0 | 6.0 | 0.00 | 0.11 | 0.00 | 79 | 1016.6 |
| 20260904220833 | 62 | 285 | 4.0 | 6.0 | 0.00 | 0.11 | 0.00 | 79 | 1016.7 |
| 20260904220333 | 62 | 290 | 4.0 | 5.0 | 0.00 | 0.11 | 0.00 | 79 | 1016.7 |
| 20260904215834 | 62 | 278 | 4.0 | 7.0 | 0.00 | 0.11 | 0.11 | 78 | 1016.6 |
| 20260904215333 | 62 | 302 | 4.0 | 7.0 | 0.00 | 0.11 | 0.11 | 78 | 1016.6 |
| 20260904214945 | 63 | 272 | 2.0 | 5.0 | 0.00 | 0.11 | 0.11 | 79 | 1016.5 |
| 20260904214936 | 63 | 288 | 2.0 | 5.0 | 0.00 | 0.11 | 0.11 | 79 | 1016.5 |
| 20260904214906 | 63 | 313 | 2.0 | 6.0 | 0.00 | 0.11 | 0.11 | 79 | 1016.6 |
| 20260904213332 | 63 | 316 | 3.0 | 6.0 | 0.00 | 0.11 | 0.11 | 79 | 1016.5 |
| 20260904212832 | 63 | 293 | 2.0 | 6.0 | 0.00 | 0.11 | 0.11 | 79 | 1016.4 |
| 20260904212333 | 64 | 296 | 5.0 | 7.0 | 0.00 | 0.11 | 0.11 | 79 | 1016.4 |
| 20260904211834 | 64 | 258 | 3.0 | 7.0 | 0.00 | 0.11 | 0.11 | 79 | 1016.3 |
| 20260904211332 | 64 | 261 | 4.0 | 9.0 | 0.00 | 0.11 | 0.11 | 79 | 1016.3 |
| 20260904210833 | 64 | 251 | 4.0 | 9.0 | 0.00 | 0.11 | 0.11 | 79 | 1016.4 |
| 20260904210332 | 64 | 245 | 4.0 | 6.0 | 0.00 | 0.11 | 0.11 | 79 | 1016.4 |
| 20260904205832 | 64 | 261 | 4.0 | 6.0 | 0.00 | 0.11 | 0.11 | 79 | 1016.4 |
| 20260904205333 | 64 | 279 | 3.0 | 9.0 | 0.00 | 0.11 | 0.11 | 79 | 1016.3 |
| 20260904204834 | 64 | 268 | 4.0 | 9.0 | 0.00 | 0.11 | 0.11 | 79 | 1016.2 |
| 20260904204601 | 64 | 244 | 5.0 | 9.0 | 0.00 | 0.11 | 0.11 | 79 | 1016.1 |
| 20260904204454 | 64 | 241 | 2.0 | 9.0 | 0.00 | 0.11 | 0.11 | 78 | 1016.3 |
| 20260904203715 | 64 | 282 | 4.0 | 9.0 | 0.00 | 0.11 | 0.11 | 79 | 1016.0 |
| 20260904202845 | 64 | 275 | 4.0 | 6.0 | 0.00 | 0.11 | 0.11 | 78 | 1016.1 |
| 20260904202331 | 64 | 296 | 3.0 | 5.0 | 0.00 | 0.11 | 0.11 | 78 | 1015.9 |
| 20260904201832 | 64 | 281 | 4.0 | 5.0 | 0.00 | 0.11 | 0.11 | 78 | 1015.8 |
| 20260904201331 | 65 | 271 | 4.0 | 9.0 | 0.00 | 0.11 | 0.11 | 78 | 1015.7 |
| 20260904200830 | 64 | 340 | 2.0 | 9.0 | 0.00 | 0.11 | 0.11 | 79 | 1015.7 |
| 20260904200333 | 65 | 292 | 3.0 | 6.0 | 0.00 | 0.11 | 0.11 | 79 | 1015.7 |
| 20260904195830 | 65 | 305 | 2.0 | 7.0 | 0.00 | 0.11 | 0.11 | 79 | 1015.5 |
| 20260904195332 | 65 | 300 | 4.0 | 7.0 | 0.00 | 0.11 | 0.11 | 79 | 1015.5 |
| 20260904194947 | 65 | 307 | 3.0 | 9.0 | 0.00 | 0.11 | 0.11 | 79 | 1015.4 |
| 20260904194911 | 65 | 298 | 4.0 | 9.0 | 0.00 | 0.11 | 0.11 | 79 | 1015.5 |
| 20260904194454 | 65 | 283 | 4.0 | 9.0 | 0.00 | 0.11 | 0.11 | 79 | 1015.5 |
| 20260904193331 | 65 | 320 | 3.0 | 7.0 | 0.00 | 0.11 | 0.11 | 79 | 1015.4 |
| 20260904192830 | 65 | 292 | 4.0 | 6.0 | 0.00 | 0.11 | 0.11 | 80 | 1015.3 |
| 20260904192330 | 65 | 310 | 4.0 | 6.0 | 0.00 | 0.11 | 0.11 | 80 | 1015.4 |
| 20260904191830 | 65 | 296 | 3.0 | 6.0 | 0.00 | 0.11 | 0.11 | 80 | 1015.4 |
| 20260904191330 | 65 | 306 | 4.0 | 6.0 | 0.00 | 0.11 | 0.11 | 80 | 1015.4 |
| 20260904190830 | 65 | 338 | 3.0 | 7.0 | 0.00 | 0.11 | 0.11 | 80 | 1015.3 |
| 20260904190716 | 65 | 300 | 4.0 | 7.0 | 0.00 | 0.11 | 0.11 | 80 | 1015.2 |
| 20260904185829 | 65 | 323 | 4.0 | 9.0 | 0.00 | 0.11 | 0.11 | 81 | 1015.2 |
| 20260904185331 | 65 | 326 | 2.0 | 9.0 | 0.00 | 0.11 | 0.11 | 81 | 1015.0 |
| 20260904185216 | 65 | 316 | 4.0 | 7.0 | 0.00 | 0.11 | 0.11 | 81 | 1015.0 |
| 20260904184329 | 65 | 330 | 3.0 | 7.0 | 0.00 | 0.11 | 0.11 | 82 | 1015.0 |
| 20260904184056 | 66 | 324 | 2.0 | 7.0 | 0.00 | 0.11 | 0.11 | 82 | 1014.8 |
| 20260904183953 | 65 | 316 | 2.0 | 7.0 | 0.00 | 0.11 | 0.11 | 82 | 1014.8 |
| 20260904182830 | 66 | 320 | 3.0 | 7.0 | 0.00 | 0.11 | 0.11 | 82 | 1014.6 |
| 20260904182556 | 66 | 300 | 4.0 | 10.0 | 0.00 | 0.11 | 0.11 | 82 | 1014.6 |
| 20260904182448 | 66 | 300 | 1.0 | 9.0 | 0.00 | 0.11 | 0.11 | 82 | 1014.7 |
| 20260904181329 | 66 | 278 | 3.0 | 10.0 | 0.00 | 0.11 | 0.11 | 82 | 1014.6 |
| 20260904181102 | 66 | 324 | 4.0 | 7.0 | 0.00 | 0.11 | 0.11 | 81 | 1014.6 |
| 20260904180955 | 66 | 316 | 4.0 | 9.0 | 0.00 | 0.11 | 0.11 | 82 | 1014.7 |
| 20260904175827 | 66 | 269 | 4.0 | 13.0 | 0.00 | 0.11 | 0.11 | 81 | 1014.5 |
| 20260904175329 | 66 | 282 | 6.0 | 13.0 | 0.00 | 0.11 | 0.11 | 81 | 1014.7 |
| 20260904174828 | 66 | 319 | 5.0 | 12.0 | 0.00 | 0.11 | 0.11 | 81 | 1014.4 |
| 20260904174329 | 66 | 313 | 8.0 | 12.0 | 0.00 | 0.11 | 0.11 | 82 | 1014.2 |
| 20260904173826 | 66 | 6 | 4.0 | 7.0 | 0.00 | 0.11 | 0.11 | 81 | 1014.1 |
| 20260904173328 | 66 | 275 | 5.0 | 10.0 | 0.00 | 0.11 | 0.11 | 82 | 1014.0 |
| 20260904172828 | 66 | 278 | 5.0 | 10.0 | 0.00 | 0.11 | 0.11 | 82 | 1014.0 |
| 20260904172326 | 66 | 286 | 4.0 | 7.0 | 0.00 | 0.11 | 0.11 | 82 | 1014.1 |
| 20260904171828 | 66 | 248 | 4.0 | 10.0 | 0.00 | 0.11 | 0.11 | 82 | 1014.0 |
| 20260904171328 | 66 | 298 | 5.0 | 10.0 | 0.00 | 0.11 | 0.11 | 82 | 1014.0 |
| 20260904170828 | 66 | 316 | 4.0 | 12.0 | 0.00 | 0.11 | 0.11 | 82 | 1013.8 |
| 20260904170328 | 66 | 324 | 5.0 | 12.0 | 0.00 | 0.11 | 0.11 | 83 | 1014.0 |
| 20260904165828 | 67 | 298 | 4.0 | 6.0 | 0.00 | 0.11 | 0.11 | 83 | 1013.9 |
| 20260904165329 | 67 | 272 | 4.0 | 6.0 | 0.00 | 0.11 | 0.11 | 83 | 1013.8 |
| 20260904165205 | 67 | 275 | 4.0 | 9.0 | 0.00 | 0.11 | 0.11 | 83 | 1013.8 |
| 20260904164328 | 67 | 279 | 6.0 | 10.0 | 0.00 | 0.11 | 0.11 | 83 | 1013.7 |
| 20260904164207 | 67 | 281 | 5.0 | 10.0 | 0.00 | 0.11 | 0.11 | 83 | 1013.7 |
| 20260904163326 | 66 | 331 | 2.0 | 7.0 | 0.00 | 0.11 | 0.11 | 84 | 1013.5 |
| 20260904162828 | 66 | 286 | 5.0 | 10.0 | 0.00 | 0.11 | 0.11 | 84 | 1013.7 |
| 20260904162325 | 66 | 283 | 4.0 | 12.0 | 0.00 | 0.11 | 0.11 | 84 | 1013.7 |
| 20260904162213 | 66 | 302 | 6.0 | 12.0 | 0.00 | 0.11 | 0.11 | 86 | 1013.7 |
| 20260904161326 | 66 | 248 | 5.0 | 11.0 | 0.00 | 0.11 | 0.11 | 86 | 1013.7 |
| 20260904160826 | 66 | 293 | 6.0 | 9.0 | 0.00 | 0.11 | 0.11 | 86 | 1013.6 |
| 20260904160327 | 66 | 281 | 4.0 | 10.0 | 0.00 | 0.11 | 0.11 | 86 | 1013.8 |
| 20260904155824 | 66 | 251 | 6.0 | 12.0 | 0.01 | 0.11 | 0.09 | 87 | 1013.8 |
| 20260904155326 | 65 | 306 | 7.0 | 12.0 | 0.01 | 0.11 | 0.09 | 87 | 1013.7 |
| 20260904155055 | 65 | 244 | 5.0 | 12.0 | 0.02 | 0.11 | 0.09 | 88 | 1013.7 |
| 20260904154946 | 65 | 271 | 8.0 | 12.0 | 0.01 | 0.11 | 0.09 | 87 | 1013.8 |
| 20260904153823 | 65 | 276 | 6.0 | 12.0 | 0.02 | 0.11 | 0.09 | 88 | 1013.6 |
| 20260904153326 | 65 | 279 | 4.0 | 12.0 | 0.02 | 0.11 | 0.09 | 88 | 1013.5 |
| 20260904152824 | 65 | 265 | 6.0 | 12.0 | 0.02 | 0.11 | 0.09 | 88 | 1013.6 |
| 20260904152324 | 65 | 258 | 7.0 | 12.0 | 0.02 | 0.11 | 0.09 | 88 | 1013.4 |
| 20260904151823 | 65 | 259 | 6.0 | 11.0 | 0.02 | 0.11 | 0.09 | 89 | 1013.4 |
| 20260904151323 | 65 | 288 | 6.0 | 11.0 | 0.02 | 0.11 | 0.09 | 89 | 1013.5 |
| 20260904150823 | 64 | 271 | 5.0 | 13.0 | 0.02 | 0.10 | 0.10 | 89 | 1013.6 |
| 20260904150321 | 64 | 269 | 6.0 | 13.0 | 0.02 | 0.10 | 0.10 | 89 | 1013.7 |
| 20260904145824 | 64 | 269 | 6.0 | 13.0 | 0.02 | 0.09 | 0.07 | 89 | 1013.6 |
| 20260904145611 | 0 | 274 | 6.0 | 15.0 | 0.02 | 0.09 | 0.07 | 1013.5 | |
| 20260904145447 | 64 | 271 | 8.0 | 13.0 | 0.02 | 0.09 | 0.07 | 89 | 1013.8 |
| 20260904144324 | 0 | 330 | 7.0 | 15.0 | 0.00 | 0.09 | 0.09 | 1013.5 | |
| 20260904143824 | 0 | 289 | 9.0 | 15.0 | 0.00 | 0.09 | 0.09 | 1013.5 | |
| 20260904143606 | 64 | 320 | 6.0 | 18.0 | 0.01 | 0.09 | 0.09 | 89 | 1013.5 |
| 20260904143449 | 0 | 319 | 9.0 | 15.0 | 0.01 | 0.09 | 0.09 | 1013.6 | |
| 20260904142324 | 0 | 331 | 8.0 | 18.0 | 0.02 | 0.09 | 0.09 | 1013.5 | |
| 20260904141824 | 64 | 299 | 6.0 | 18.0 | 0.02 | 0.09 | 0.09 | 89 | 1013.6 |
| 20260904141659 | 0 | 286 | 3.0 | 12.0 | 0.02 | 0.09 | 0.09 | 1013.5 | |
| 20260904140822 | 0 | 278 | 3.0 | 11.0 | 0.03 | 0.09 | 0.09 | 1013.4 | |
| 20260904140322 | 0 | 323 | 4.0 | 13.0 | 0.03 | 0.09 | 0.09 | 1013.2 | |
| 20260904140204 | 0 | 283 | 5.0 | 13.0 | 0.03 | 0.06 | 0.06 | 1013.2 | |
| 20260904135704 | 0 | 269 | 8.0 | 13.0 | 0.04 | 0.06 | 0.06 | 1013.2 | |
| 20260904134821 | 0 | 298 | 8.0 | 13.0 | 0.05 | 0.06 | 0.06 | 1013.1 | |
| 20260904134321 | 0 | 319 | 4.0 | 19.0 | 0.05 | 0.06 | 0.06 | 1013.0 | |
| 20260904134043 | 0 | 324 | 12.0 | 18.0 | 0.04 | 0.06 | 0.06 | 1013.1 | |
| 20260904133939 | 0 | 266 | 10.0 | 19.0 | 0.05 | 0.06 | 0.06 | 1013.0 | |
| 20260904132820 | 0 | 310 | 8.0 | 18.0 | 0.04 | 0.06 | 0.06 | 1013.2 | |
| 20260904132321 | 65 | 354 | 8.0 | 15.0 | 0.03 | 0.06 | 0.05 | 88 | 1013.0 |
| 20260904131819 | 0 | 341 | 8.0 | 13.0 | 0.04 | 0.06 | 0.05 | 1012.8 | |
| 20260904131320 | 66 | 302 | 6.0 | 13.0 | 0.04 | 0.06 | 0.05 | 88 | 1012.8 |
| 20260904130822 | 66 | 257 | 5.0 | 15.0 | 0.02 | 0.06 | 0.06 | 85 | 1013.0 |
| 20260904130321 | 66 | 302 | 7.0 | 17.0 | 0.02 | 0.06 | 0.06 | 85 | 1012.9 |
| 20260904125821 | 67 | 282 | 10.0 | 17.0 | 0.02 | 0.03 | 0.06 | 85 | 1012.8 |
| 20260904125319 | 0 | 323 | 10.0 | 18.0 | 0.02 | 0.03 | 0.05 | 1012.7 | |
| 20260904124820 | 69 | 271 | 12.0 | 19.0 | 0.01 | 0.03 | 0.04 | 86 | 1012.2 |
| 20260904124321 | 69 | 271 | 10.0 | 19.0 | 0.01 | 0.03 | 0.04 | 86 | 1012.0 |
| 20260904123822 | 70 | 230 | 11.0 | 17.0 | 0.01 | 0.03 | 0.04 | 86 | 1012.1 |
| 20260904123319 | 70 | 250 | 7.0 | 16.0 | 0.01 | 0.03 | 0.04 | 85 | 1012.1 |
| 20260904122820 | 70 | 241 | 10.0 | 16.0 | 0.01 | 0.03 | 0.04 | 85 | 1012.1 |
| 20260904122321 | 71 | 235 | 5.0 | 13.0 | 0.01 | 0.03 | 0.04 | 84 | 1012.0 |
| 20260904121819 | 71 | 214 | 8.0 | 15.0 | 0.00 | 0.03 | 0.03 | 84 | 1012.0 |
| 20260904121318 | 71 | 296 | 8.0 | 15.0 | 0.00 | 0.03 | 0.03 | 84 | 1012.0 |
| 20260904120819 | 71 | 271 | 8.0 | 13.0 | 0.00 | 0.03 | 0.03 | 84 | 1012.0 |
| 20260904120321 | 70 | 243 | 7.0 | 18.0 | 0.00 | 0.03 | 0.03 | 83 | 1011.9 |
| 20260904115818 | 70 | 262 | 7.0 | 22.0 | 0.00 | 0.03 | 0.00 | 84 | 1011.9 |
| 20260904115319 | 70 | 254 | 8.0 | 22.0 | 0.02 | 0.03 | 0.00 | 83 | 1011.8 |
| 20260904114818 | 71 | 183 | 9.0 | 18.0 | 0.03 | 0.03 | 0.00 | 83 | 1011.9 |
| 20260904114700 | 71 | 216 | 9.0 | 21.0 | 0.03 | 0.03 | 0.00 | 83 | 1011.8 |
| 20260904113817 | 71 | 251 | 12.0 | 21.0 | 0.03 | 0.03 | 0.00 | 84 | 1011.9 |
| 20260904113659 | 70 | 223 | 6.0 | 16.0 | 0.03 | 0.03 | 0.00 | 85 | 1011.9 |
| 20260904112817 | 70 | 285 | 8.0 | 21.0 | 0.03 | 0.03 | 0.00 | 85 | 1011.9 |
| 20260904112318 | 70 | 275 | 9.0 | 21.0 | 0.03 | 0.03 | 0.00 | 85 | 1011.9 |
| 20260904111818 | 70 | 252 | 9.0 | 18.0 | 0.03 | 0.03 | 0.00 | 85 | 1011.8 |
| 20260904111317 | 70 | 248 | 7.0 | 18.0 | 0.03 | 0.03 | 0.00 | 86 | 1011.7 |
| 20260904110818 | 70 | 282 | 7.0 | 15.0 | 0.03 | 0.03 | 0.00 | 86 | 1011.8 |
| 20260904110318 | 70 | 213 | 8.0 | 15.0 | 0.03 | 0.02 | 0.02 | 84 | 1012.0 |
| 20260904105817 | 70 | 276 | 10.0 | 16.0 | 0.03 | 0.00 | 0.02 | 84 | 1012.1 |
| 20260904105319 | 71 | 289 | 11.0 | 16.0 | 0.01 | 0.00 | 0.01 | 82 | 1012.1 |
| 20260904104819 | 71 | 251 | 8.0 | 19.0 | 0.00 | 0.00 | 0.00 | 81 | 1012.0 |
| 20260904104317 | 71 | 223 | 11.0 | 19.0 | 0.00 | 0.00 | 0.00 | 80 | 1012.2 |
| 20260904103816 | 71 | 266 | 10.0 | 26.0 | 0.00 | 0.00 | 0.00 | 80 | 1012.1 |
| 20260904103318 | 71 | 245 | 11.0 | 26.0 | 0.00 | 0.00 | 0.00 | 80 | 1012.1 |
| 20260904102816 | 71 | 271 | 9.0 | 19.0 | 0.00 | 0.00 | 0.00 | 81 | 1012.1 |
| 20260904102705 | 71 | 210 | 7.0 | 20.0 | 0.00 | 0.00 | 0.00 | 82 | 1012.1 |
| 20260904101816 | 71 | 252 | 13.0 | 22.0 | 0.00 | 0.00 | 0.00 | 81 | 1012.0 |
| 20260904101316 | 71 | 203 | 12.0 | 22.0 | 0.00 | 0.00 | 0.00 | 80 | 1012.1 |
| 20260904100815 | 72 | 295 | 11.0 | 19.0 | 0.00 | 0.00 | 0.00 | 78 | 1012.2 |
| 20260904100315 | 72 | 265 | 10.0 | 19.0 | 0.00 | 0.00 | 0.00 | 78 | 1012.0 |
| 20260904095816 | 72 | 286 | 11.0 | 22.0 | 0.00 | 0.00 | 0.00 | 78 | 1012.2 |
| 20260904095315 | 72 | 195 | 10.0 | 22.0 | 0.00 | 0.00 | 0.00 | 78 | 1012.0 |
| 20260904095055 | 72 | 272 | 10.0 | 22.0 | 0.00 | 0.00 | 0.00 | 79 | 1012.1 |
| 20260904094945 | 72 | 282 | 10.0 | 21.0 | 0.00 | 0.00 | 0.00 | 78 | 1012.2 |
| 20260904093814 | 72 | 268 | 14.0 | 22.0 | 0.00 | 0.00 | 0.00 | 79 | 1012.1 |
| 20260904093315 | 72 | 227 | 9.0 | 29.0 | 0.00 | 0.00 | 0.00 | 79 | 1012.2 |
| 20260904092816 | 72 | 216 | 12.0 | 29.0 | 0.00 | 0.00 | 0.00 | 78 | 1012.1 |
| 20260904092327 | 72 | 212 | 8.0 | 19.0 | 0.00 | 0.00 | 0.00 | 79 | 1012.0 |
| 20260904091816 | 72 | 266 | 9.0 | 21.0 | 0.00 | 0.00 | 0.00 | 79 | 1012.0 |
| 20260904091314 | 72 | 252 | 13.0 | 26.0 | 0.00 | 0.00 | 0.00 | 79 | 1011.8 |
| 20260904090814 | 72 | 206 | 15.0 | 26.0 | 0.00 | 0.00 | 0.00 | 79 | 1011.9 |
| 20260904090315 | 72 | 252 | 14.0 | 22.0 | 0.00 | 0.00 | 0.00 | 80 | 1011.8 |
| 20260904085815 | 72 | 207 | 13.0 | 23.0 | 0.00 | 0.00 | 0.00 | 80 | 1011.9 |
| 20260904085313 | 72 | 231 | 12.0 | 23.0 | 0.00 | 0.00 | 0.00 | 80 | 1011.8 |
| 20260904084813 | 72 | 207 | 11.0 | 20.0 | 0.00 | 0.00 | 0.00 | 81 | 1011.9 |
| 20260904084659 | 71 | 212 | 10.0 | 19.0 | 0.00 | 0.00 | 0.00 | 82 | 1011.9 |
| 20260904083818 | 71 | 216 | 11.0 | 18.0 | 0.00 | 0.00 | 0.00 | 83 | 1012.0 |
| 20260904083328 | 71 | 209 | 13.0 | 18.0 | 0.00 | 0.00 | 0.00 | 83 | 1012.1 |
| 20260904082815 | 71 | 234 | 9.0 | 19.0 | 0.00 | 0.00 | 0.00 | 85 | 1012.1 |
| 20260904082312 | 70 | 228 | 13.0 | 19.0 | 0.00 | 0.00 | 0.00 | 87 | 1012.1 |
| 20260904081812 | 69 | 161 | 11.0 | 17.0 | 0.00 | 0.00 | 0.00 | 86 | 1012.3 |
| 20260904081659 | 69 | 206 | 9.0 | 22.0 | 0.00 | 0.00 | 0.00 | 86 | 1012.4 |
| 20260904080812 | 70 | 248 | 13.0 | 22.0 | 0.00 | 0.00 | 0.00 | 84 | 1012.5 |
| 20260904080315 | 70 | 223 | 13.0 | 19.0 | 0.00 | 0.00 | 0.00 | 83 | 1012.4 |
| 20260904080204 | 70 | 252 | 10.0 | 19.0 | 0.00 | 0.00 | 0.00 | 83 | 1012.5 |
| 20260904075553 | 70 | 219 | 14.0 | 30.0 | 0.00 | 0.00 | 0.00 | 83 | 1012.5 |
| 20260904075438 | 70 | 235 | 12.0 | 30.0 | 0.00 | 0.00 | 0.00 | 83 | 1012.3 |
| 20260904074311 | 70 | 216 | 15.0 | 23.0 | 0.00 | 0.00 | 0.00 | 82 | 1012.6 |
| 20260904073812 | 70 | 228 | 13.0 | 24.0 | 0.00 | 0.00 | 0.00 | 83 | 1012.6 |
| 20260904073718 | 70 | 219 | 14.0 | 24.0 | 0.00 | 0.00 | 0.00 | 83 | 1012.7 |
| 20260904072811 | 70 | 237 | 11.0 | 19.0 | 0.00 | 0.00 | 0.00 | 84 | 1012.6 |
| 20260904072700 | 69 | 237 | 9.0 | 16.0 | 0.00 | 0.00 | 0.00 | 85 | 1012.5 |
| 20260904071813 | 69 | 247 | 7.0 | 20.0 | 0.00 | 0.00 | 0.00 | 86 | 1012.6 |
| 20260904071313 | 69 | 216 | 7.0 | 21.0 | 0.00 | 0.00 | 0.00 | 85 | 1012.6 |
| 20260904070823 | 69 | 262 | 11.0 | 22.0 | 0.00 | 0.00 | 0.00 | 84 | 1012.8 |
| 20260904070310 | 70 | 237 | 15.0 | 23.0 | 0.00 | 0.00 | 0.00 | 82 | 1012.7 |
| 20260904065809 | 70 | 228 | 13.0 | 23.0 | 0.00 | 0.00 | 0.00 | 81 | 1012.6 |
| 20260904065311 | 70 | 214 | 9.0 | 18.0 | 0.00 | 0.00 | 0.00 | 81 | 1012.7 |
| 20260904064809 | 70 | 210 | 11.0 | 18.0 | 0.00 | 0.00 | 0.00 | 80 | 1012.6 |
| 20260904064310 | 70 | 274 | 9.0 | 18.0 | 0.00 | 0.00 | 0.00 | 81 | 1012.6 |
| 20260904063810 | 70 | 220 | 12.0 | 20.0 | 0.00 | 0.00 | 0.00 | 81 | 1012.7 |
| 20260904063310 | 70 | 259 | 9.0 | 20.0 | 0.00 | 0.00 | 0.00 | 81 | 1012.7 |
| 20260904062810 | 70 | 237 | 9.0 | 23.0 | 0.00 | 0.00 | 0.00 | 81 | 1012.7 |
| 20260904062308 | 70 | 221 | 14.0 | 23.0 | 0.00 | 0.00 | 0.00 | 82 | 1012.7 |
| 20260904061810 | 69 | 230 | 12.0 | 18.0 | 0.00 | 0.00 | 0.00 | 82 | 1012.6 |
| 20260904061309 | 69 | 223 | 10.0 | 19.0 | 0.00 | 0.00 | 0.00 | 82 | 1012.6 |
| 20260904060819 | 69 | 223 | 9.0 | 19.0 | 0.00 | 0.00 | 0.00 | 82 | 1012.7 |
| 20260904060310 | 69 | 237 | 10.0 | 22.0 | 0.00 | 0.00 | 0.00 | 82 | 1012.8 |
| 20260904055809 | 69 | 220 | 16.0 | 22.0 | 0.00 | 0.00 | 0.00 | 82 | 1013.0 |
| 20260904055310 | 69 | 259 | 11.0 | 19.0 | 0.00 | 0.00 | 0.00 | 82 | 1012.9 |
| 20260904054807 | 69 | 180 | 10.0 | 19.0 | 0.00 | 0.00 | 0.00 | 82 | 1013.0 |
| 20260904054309 | 69 | 189 | 8.0 | 15.0 | 0.00 | 0.00 | 0.00 | 82 | 1013.1 |
| 20260904053808 | 69 | 204 | 7.0 | 18.0 | 0.00 | 0.00 | 0.00 | 82 | 1013.2 |
| 20260904053308 | 69 | 207 | 10.0 | 18.0 | 0.00 | 0.00 | 0.00 | 82 | 1013.2 |
| 20260904052807 | 69 | 244 | 9.0 | 18.0 | 0.00 | 0.00 | 0.00 | 83 | 1013.3 |
| 20260904052308 | 69 | 212 | 8.0 | 18.0 | 0.00 | 0.00 | 0.00 | 83 | 1013.4 |
| 20260904051809 | 69 | 235 | 9.0 | 16.0 | 0.00 | 0.00 | 0.00 | 83 | 1013.4 |
| 20260904051310 | 69 | 223 | 10.0 | 18.0 | 0.00 | 0.00 | 0.00 | 83 | 1013.4 |
| 20260904051148 | 69 | 203 | 8.0 | 18.0 | 0.00 | 0.00 | 0.00 | 83 | 1013.6 |
| 20260904050306 | 69 | 252 | 11.0 | 15.0 | 0.00 | 0.00 | 0.00 | 83 | 1013.6 |
| 20260904045807 | 69 | 248 | 10.0 | 16.0 | 0.00 | 0.00 | 0.00 | 83 | 1013.8 |
| 20260904045306 | 69 | 228 | 7.0 | 16.0 | 0.00 | 0.00 | 0.00 | 83 | 1013.8 |
| 20260904044802 | 69 | 226 | 9.0 | 16.0 | 0.00 | 0.00 | 0.00 | 84 | 1013.9 |
| 20260904044302 | 69 | 248 | 8.0 | 14.0 | 0.00 | 0.00 | 0.00 | 84 | 1013.8 |
| 20260904044149 | 68 | 259 | 9.0 | 14.0 | 0.00 | 0.00 | 0.00 | 84 | 1013.8 |
| 20260904043303 | 69 | 224 | 8.0 | 15.0 | 0.00 | 0.00 | 0.00 | 84 | 1013.9 |
| 20260904042803 | 68 | 243 | 9.0 | 18.0 | 0.00 | 0.00 | 0.00 | 84 | 1014.0 |
| 20260904042306 | 69 | 216 | 8.0 | 18.0 | 0.00 | 0.00 | 0.00 | 83 | 1013.9 |
| 20260904041802 | 69 | 245 | 9.0 | 17.0 | 0.00 | 0.00 | 0.00 | 83 | 1013.9 |
| 20260904041304 | 69 | 252 | 11.0 | 17.0 | 0.00 | 0.00 | 0.00 | 83 | 1013.9 |
| 20260904040803 | 69 | 216 | 8.0 | 14.0 | 0.00 | 0.00 | 0.00 | 83 | 1014.0 |
| 20260904040304 | 69 | 235 | 9.0 | 16.0 | 0.00 | 0.00 | 0.00 | 83 | 1014.0 |
| 20260904035803 | 69 | 237 | 9.0 | 16.0 | 0.00 | 0.00 | 0.00 | 83 | 1014.0 |
| 20260904035547 | 69 | 241 | 5.0 | 17.0 | 0.00 | 0.00 | 0.00 | 83 | 1014.1 |
| 20260904035430 | 69 | 224 | 7.0 | 16.0 | 0.00 | 0.00 | 0.00 | 83 | 1014.0 |
| 20260904034305 | 69 | 220 | 10.0 | 17.0 | 0.00 | 0.00 | 0.00 | 83 | 1014.1 |
| 20260904033803 | 69 | 230 | 9.0 | 18.0 | 0.00 | 0.00 | 0.00 | 84 | 1014.2 |
| 20260904033304 | 69 | 234 | 10.0 | 18.0 | 0.00 | 0.00 | 0.00 | 84 | 1014.2 |
| 20260904033154 | 69 | 262 | 11.0 | 18.0 | 0.00 | 0.00 | 0.00 | 84 | 1014.2 |
| 20260904032305 | 69 | 228 | 11.0 | 16.0 | 0.00 | 0.00 | 0.00 | 84 | 1014.2 |
| 20260904031804 | 69 | 207 | 10.0 | 16.0 | 0.00 | 0.00 | 0.00 | 84 | 1014.3 |
| 20260904031304 | 69 | 223 | 7.0 | 19.0 | 0.00 | 0.00 | 0.00 | 84 | 1014.4 |
| 20260904030802 | 69 | 241 | 7.0 | 19.0 | 0.00 | 0.00 | 0.00 | 84 | 1014.4 |
| 20260904030302 | 69 | 241 | 8.0 | 19.0 | 0.00 | 0.00 | 0.00 | 84 | 1014.2 |
| 20260904030150 | 69 | 231 | 12.0 | 19.0 | 0.00 | 0.00 | 0.00 | 84 | 1014.3 |
| 20260904025305 | 69 | 241 | 10.0 | 16.0 | 0.00 | 0.00 | 0.00 | 84 | 1014.4 |
| 20260904024802 | 69 | 210 | 11.0 | 18.0 | 0.00 | 0.00 | 0.00 | 84 | 1014.4 |
| 20260904024648 | 69 | 227 | 10.0 | 18.0 | 0.00 | 0.00 | 0.00 | 84 | 1014.5 |